Weather History for Norwood, MA

Change the Weather History Date:

Saturday, December 8, 2012

  Actual Average Record
Temperature  
Mean Temperature 44 °F -  
Max Temperature 46 °F 41 °F 54 °F (2004)
Min Temperature 42 °F 23 °F 8 °F (2003)
Degree Days  
Heating Degree Days 21    
Moisture  
Dew Point 43 °F    
Average Humidity 95    
Maximum Humidity 100    
Minimum Humidity 90    
Precipitation  
Precipitation 0.23 in - - ()
Sea Level Pressure  
Sea Level Pressure 29.94 in    
Wind  
Wind Speed 1 mph (NNE)    
Max Wind Speed 7 mph    
Max Gust Speed -    
Visibility 2 miles    
Events Rain    
Averages and records for this station are not official NWS values.
T = Trace of Precipitation, MM = Missing Value Source: NWS Daily Summary

Daily Weather History Graph

Daily Weather History Graph

Search for Another Location

Airport:

Trip Planner

Search our weather history database for the weather conditions in past years. The results will help you decide how hot, cold, wet, or windy it might be!

Date:

Astronomy

Dec. 08, 2012 Rise Set
Actual Time 7:01 AM EST 4:12 PM EST
Civil Twilight 6:29 AM EST 4:44 PM EST
Nautical Twilight 5:54 AM EST 5:19 PM EST
Astronomical Twilight 5:20 AM EST 5:53 PM EST
Moon 1:17 AM EST (12/8) 12:45 PM EST (12/8)
Length of Visible Light 10h 14m
Length of Day
9h 11m
Waning Crescent, 28% of the Moon is Illuminated
Dec 8
Waning Crescent
Dec 13
New
Dec 20
First Quarter
Dec 28
Full
Jan 4
Last Quarter

Hourly Weather History & Observations

Time (EST) Temp. Windchill Dew Point Humidity Pressure Visibility Wind Dir Wind Speed Gust Speed Precip Events Conditions
12:28 AM 42.8 °F - 41.0 °F 93% 30.03 in 3.0 mi Calm Calm - N/A   Overcast
12:51 AM 42.8 °F - 42.8 °F 100% 30.03 in 3.0 mi Calm Calm - 0.00 in Rain Light Rain
12:53 AM 43.0 °F - 42.1 °F 97% 30.03 in 3.0 mi Calm Calm - 0.00 in Rain Light Rain
1:02 AM 42.8 °F - 41.0 °F 93% 30.03 in 3.0 mi Calm Calm - 0.00 in Rain Light Rain
1:23 AM 42.8 °F - 41.0 °F 93% 30.03 in 3.0 mi Calm Calm - 0.00 in   Overcast
1:45 AM 42.8 °F - 41.0 °F 93% 30.03 in 2.0 mi Calm Calm - 0.00 in   Overcast
1:53 AM 42.1 °F - 41.0 °F 96% 30.03 in 2.0 mi Calm Calm - 0.00 in   Overcast
2:05 AM 42.8 °F - 41.0 °F 93% 30.03 in 1.8 mi Calm Calm - N/A   Overcast
2:53 AM 42.1 °F - 41.0 °F 96% 30.02 in 1.2 mi Calm Calm - N/A   Overcast
3:53 AM 42.1 °F - 41.0 °F 96% 30.01 in 1.8 mi Calm Calm - 0.02 in Rain Light Rain
4:53 AM 42.1 °F - 41.0 °F 96% 29.99 in 1.0 mi Calm Calm - 0.04 in Rain Light Rain
5:22 AM 42.8 °F - 42.8 °F 100% 29.99 in 2.0 mi Calm Calm - 0.03 in Rain Light Rain
5:31 AM 42.8 °F - 42.8 °F 100% 29.99 in 2.0 mi Calm Calm - 0.04 in Rain Light Rain
5:45 AM 42.8 °F - 41.0 °F 93% 29.99 in 1.8 mi Calm Calm - 0.05 in Rain Light Rain
6:15 AM 42.8 °F - 42.8 °F 100% 29.99 in 1.5 mi Calm Calm - 0.02 in Rain Light Rain
6:44 AM 42.8 °F - 42.8 °F 100% 29.99 in 1.5 mi Calm Calm - 0.04 in Rain Light Rain
6:51 AM 42.8 °F - 42.8 °F 100% 29.99 in 1.5 mi Calm Calm - 0.04 in   Overcast
6:53 AM 43.0 °F - 42.1 °F 97% 29.99 in 1.8 mi Calm Calm - 0.04 in   Overcast
7:01 AM 44.6 °F - 42.8 °F 93% 29.98 in 3.0 mi Calm Calm - N/A   Overcast
7:36 AM 44.6 °F - 42.8 °F 93% 29.97 in 2.5 mi Calm Calm - N/A   Overcast
7:43 AM 44.6 °F - 42.8 °F 93% 29.97 in 4.0 mi Calm Calm - N/A   Overcast
7:51 AM 44.6 °F - 42.8 °F 93% 29.96 in 4.0 mi Calm Calm - N/A   Overcast
7:53 AM 44.1 °F - 43.0 °F 96% 29.96 in 3.0 mi Calm Calm - N/A   Overcast
8:08 AM 44.6 °F 43.1 °F 42.8 °F 93% 29.96 in 1.0 mi ENE 3.5 mph - N/A   Overcast
8:21 AM 44.6 °F - 42.8 °F 93% 29.96 in 1.0 mi Calm Calm - N/A   Overcast
8:32 AM 44.6 °F - 42.8 °F 93% 29.95 in 1.0 mi Calm Calm - 0.01 in Rain Light Rain
8:53 AM 45.0 °F 43.5 °F 43.0 °F 93% 29.95 in 1.5 mi NNE 3.5 mph - 0.03 in Rain Light Rain
9:06 AM 44.6 °F 42.2 °F 42.8 °F 93% 29.94 in 2.0 mi North 4.6 mph - 0.00 in Rain Light Rain
9:17 AM 44.6 °F 42.2 °F 44.6 °F 100% 29.94 in 1.8 mi NE 4.6 mph - 0.02 in Rain Light Rain
9:42 AM 44.6 °F 41.4 °F 44.6 °F 100% 29.92 in 1.8 mi ENE 5.8 mph - 0.06 in Rain Light Rain
9:51 AM 46.4 °F 45.2 °F 44.6 °F 93% 29.93 in 2.0 mi North 3.5 mph - 0.06 in Rain Light Rain
9:53 AM 46.0 °F 43.9 °F 44.1 °F 93% 29.93 in 2.0 mi North 4.6 mph - 0.06 in Rain Light Rain
10:05 AM 46.4 °F 43.5 °F 44.6 °F 93% 29.93 in 4.0 mi North 5.8 mph - 0.01 in   Overcast
10:16 AM 46.4 °F 44.3 °F 44.6 °F 93% 29.92 in 7.0 mi North 4.6 mph - 0.01 in   Overcast
10:48 AM 46.4 °F 43.5 °F 44.6 °F 93% 29.91 in 2.0 mi NNE 5.8 mph - 0.01 in Rain Light Rain
10:53 AM 46.9 °F - 44.1 °F 90% 29.91 in 2.0 mi NNE 6.9 mph - 0.01 in Rain Light Rain
11:04 AM 46.4 °F 42.9 °F 44.6 °F 93% 29.91 in 1.0 mi North 6.9 mph - 0.01 in Rain Light Rain
11:36 AM 46.4 °F 43.5 °F 44.6 °F 93% 29.89 in 1.0 mi North 5.8 mph - 0.03 in   Overcast
11:53 AM 46.0 °F 43.1 °F 44.1 °F 93% 29.88 in 1.0 mi North 5.8 mph - 0.03 in   Overcast
12:53 PM 45.0 °F 41.8 °F 43.0 °F 93% 29.86 in 1.5 mi NNW 5.8 mph - N/A   Overcast
1:34 PM 44.6 °F 41.4 °F 42.8 °F 93% 29.86 in 1.5 mi North 5.8 mph - N/A   Overcast
1:53 PM 45.0 °F 43.5 °F 43.0 °F 93% 29.86 in 1.5 mi North 3.5 mph - N/A   Overcast
2:00 PM 44.6 °F - 42.8 °F 93% 29.86 in 2.5 mi Calm Calm - N/A   Overcast
2:20 PM 44.6 °F 43.1 °F 42.8 °F 93% 29.86 in 1.5 mi North 3.5 mph - N/A   Overcast
2:53 PM 44.1 °F 42.5 °F 42.1 °F 93% 29.87 in 2.0 mi North 3.5 mph - N/A   Overcast
3:53 PM 44.1 °F 42.5 °F 42.1 °F 93% 29.88 in 2.0 mi NNW 3.5 mph - N/A   Overcast
4:50 PM 42.8 °F - 41.0 °F 93% 29.89 in 2.0 mi Calm Calm - N/A   Overcast
4:53 PM 43.0 °F - 41.0 °F 93% 29.89 in 2.0 mi Calm Calm - N/A   Overcast
5:00 PM 42.8 °F - 42.8 °F 100% 29.89 in 3.0 mi Calm Calm - N/A   Overcast
5:53 PM 43.0 °F - 41.0 °F 93% 29.89 in 3.0 mi Calm Calm - N/A   Overcast
6:04 PM 42.8 °F - 41.0 °F 93% 29.90 in 2.5 mi Calm Calm - N/A   Overcast
6:11 PM 42.8 °F - 42.8 °F 100% 29.90 in 3.0 mi Calm Calm - N/A   Overcast
6:28 PM 42.8 °F - 42.8 °F 100% 29.90 in 2.5 mi Calm Calm - N/A   Overcast
6:39 PM 42.8 °F - 42.8 °F 100% 29.90 in 2.0 mi Calm Calm - N/A   Overcast
6:53 PM 43.0 °F - 42.1 °F 97% 29.91 in 2.0 mi Calm Calm - N/A   Overcast
7:06 PM 42.8 °F - 42.8 °F 100% 29.91 in 1.5 mi Calm Calm - N/A   Overcast
7:26 PM 42.8 °F - 42.8 °F 100% 29.92 in 2.5 mi Calm Calm - N/A   Overcast
7:53 PM 43.0 °F - 42.1 °F 97% 29.93 in 3.0 mi Calm Calm - N/A   Overcast
8:32 PM 42.8 °F 41.1 °F 42.8 °F 100% 29.91 in 2.0 mi SSE 3.5 mph - N/A   Overcast
8:53 PM 43.0 °F - 42.1 °F 97% 29.91 in 2.5 mi Calm Calm - N/A   Overcast
9:53 PM 44.1 °F - 43.0 °F 96% 29.93 in 5.0 mi Calm Calm - N/A   Overcast
10:38 PM 44.6 °F - 42.8 °F 93% 29.94 in 5.0 mi Calm Calm - N/A   Mostly Cloudy
10:53 PM 45.0 °F - 43.0 °F 93% 29.95 in 5.0 mi Calm Calm - N/A   Mostly Cloudy
11:53 PM 46.0 °F - 44.1 °F 93% 29.96 in 5.0 mi Calm Calm - N/A   Scattered Clouds